This is the latest recevied weather packets stored in our database for station/object KE8WMS. If no packets are shown the sender has not sent any weather packets the latest 10 day(s).
| Time | Temp. | Humidity | Pressure | Rain* | Wind** | Luminosity | Snow |
|---|---|---|---|---|---|---|---|
| 1778213925 | 9.44° C | 68% | 1009.5 hPa | 0 mm | - | 0 W/m² | - |
| 1778213622 | 9.44° C | 67% | 1009.6 hPa | 0 mm | - | 0 W/m² | - |
| 1778213318 | 9.44° C | 67% | 1009.6 hPa | 0 mm | - | 0 W/m² | - |
| 1778213016 | 9.44° C | 67% | 1009.6 hPa | 0 mm | - | 0 W/m² | - |
| 1778212713 | 8.89° C | 68% | 1009.6 hPa | 0 mm | - | 0 W/m² | - |
| 1778212410 | 8.89° C | 68% | 1009.7 hPa | 0 mm | - | 0 W/m² | - |
| 1778212107 | 8.89° C | 67% | 1009.5 hPa | 0 mm | - | 0 W/m² | - |
| 1778211804 | 8.89° C | 67% | 1009.7 hPa | 0 mm | - | 0 W/m² | - |
| 1778211501 | 8.89° C | 67% | 1009.6 hPa | 0 mm | - | 0 W/m² | - |
| 1778211199 | 8.89° C | 66% | 1009.7 hPa | 0 mm | - | 0 W/m² | - |
| 1778210896 | 8.33° C | 67% | 1009.8 hPa | 0 mm | - | 0 W/m² | - |
| 1778210594 | 8.33° C | 70% | 1009.5 hPa | 0 mm | - | 0 W/m² | - |
| 1778210290 | 7.78° C | 69% | 1009.8 hPa | 0 mm | - | 0 W/m² | - |
| 1778209987 | 7.78° C | 68% | 1009.7 hPa | 0 mm | - | 0 W/m² | - |
| 1778209683 | 7.78° C | 69% | 1009.8 hPa | 0 mm | - | 0 W/m² | - |
| 1778209381 | 7.78° C | 70% | 1009.8 hPa | 0 mm | - | 0 W/m² | - |
| 1778209077 | 7.22° C | 73% | 1009.9 hPa | 0 mm | - | 0 W/m² | - |
| 1778208774 | 6.67° C | 76% | 1009.6 hPa | 0 mm | - | 0 W/m² | - |
| 1778208470 | 6.67° C | 78% | 1009.8 hPa | 0 mm | - | 0 W/m² | - |
| 1778208167 | 6.11° C | 79% | 1009.7 hPa | 0 mm | - | 0 W/m² | - |
| 1778207864 | 6.11° C | 81% | 1009.6 hPa | 0 mm | - | 0 W/m² | - |
| 1778207562 | 6.11° C | 81% | 1009.8 hPa | 0 mm | - | 0 W/m² | - |
| 1778207257 | 6.11° C | 81% | 1009.6 hPa | 0 mm | - | 0 W/m² | - |
| 1778206954 | 6.11° C | 80% | 1009.6 hPa | 0 mm | - | 0 W/m² | - |
| 1778206651 | 5.56° C | 80% | 1009.5 hPa | 0 mm | - | 0 W/m² | - |
* Rain latest hour (hover to see other rain measurements)
** Current wind speed in m/s (hover to see current wind gust speed)